Regional Weather Roundup
Issued by NWS Wilmington, NC

Home | Current Version | Previous Version | Text Only | Print | Product List | Glossary On
Versions: 1 2 3 4 5 6 7 8 9 10 11 12 13 14 15 16 17 18 19 20 21 22 23 24 25 26 27 28 29 30 31 32 33 34 35 36 37 38 39 40 41 42 43 44 45 46 47 48 49 50
000
ASUS42 KILM 182113
RWRILM
RWRILM
REGIONAL HOURLY WEATHER ROUNDUP
NATIONAL WEATHER SERVICE WILMINGTON NC
500 PM EDT FRI AUG 18 2017

NOTE: "FAIR" INDICATES FEW OR NO CLOUDS BELOW 12,000 FEET WITH NO
SIGNIFICANT WEATHER AND/OR OBSTRUCTIONS TO VISIBILITY.

...............WFO WILMINGTON COUNTY WARNING AREA...............

......COASTAL NC AND SC COUNTIES......

CITY           SKY/WX    TMP DP  RH WIND       PRES   REMARKS
WILMINGTON     CLOUDY    93  77  59 S15       29.88S HX 107
N MYRTLE BEACH SUNNY     88  81  79 S16       29.90S HX 106
MYRTLE BEACH   MOSUNNY   90  81  74 S15       29.91S HX 108

......INLAND NC AND SC COUNTIES.......

CITY           SKY/WX    TMP DP  RH WIND       PRES   REMARKS
LUMBERTON      MOSUNNY   93  76  57 SW7       29.86S HX 105
ELIZABETHTOWN  NOT AVBL
WHITEVILLE     MOSUNNY   93  73  52 S9        29.88S HX 102
FLORENCE       MOSUNNY   94  73  50 S12G20    29.87F HX 103
DARLINGTON     SUNNY     93  76  57 S16       29.87  HX 105
KINGSTREE      FAIR      93  70  46 S7        29.89F HX  99
HARTSVILLE     FAIR      95  72  46 SW8       29.87S HX 103
BENNETTSVILLE  PTSUNNY   97  73  46 S9        29.86S HX 107
CONWAY         FAIR      91  73  55 SW6       29.89S HX 100
GEORGETOWN     FAIR      90  81  74 SW10      29.91S HX 108
MARION         PTSUNNY   91  72  52 S8        29.88S HX  98

....................REST OF NORTH CAROLINA......................

.........EASTERN NC.........

CITY           SKY/WX    TMP DP  RH WIND       PRES   REMARKS
CAPE HATTERAS  CLOUDY    86  82  88 SW12      29.92S HX 104
JACKSONVILLE   PTSUNNY   91  81  72 SE12      29.87F HX 111
MOREHEAD CITY  SUNNY     87  84  90 S15       29.90F HX 110
KENANSVILLE    PTSUNNY   91  77  62 SW3       29.87S HX 105
NEW BERN       CLOUDY    86  82  88 S8        29.89F HX 104
ELIZABETH CITY CLOUDY    85  79  82 S15G22    29.86F HX  98

.........CENTRAL NC.........

CITY           SKY/WX    TMP DP  RH WIND       PRES   REMARKS
RALEIGH DURHAM PTSUNNY   94  73  50 S8        29.84F HX 103
ROCKY MOUNT    SUNNY     93  77  59 SW8       29.85F HX 107
ROANOKE RAPIDS NOT AVBL
FAYETTEVILLE   SUNNY     95  74  50 S12       29.85S HX 105
HOFFMAN        MOSUNNY   96  69  41 SW14      29.85S HX 102

.........WESTERN NC.........

CITY           SKY/WX    TMP DP  RH WIND       PRES   REMARKS
CHARLOTTE      MOSUNNY   93  72  50 W7        29.88F HX 101
GREENSBORO     MOSUNNY   92  73  53 SW12      29.86F HX 100
HICKORY        NOT AVBL
BOONE          NOT AVBL
ASHEVILLE      NOT AVBL

.....................REST OF SOUTH CAROLINA.....................

.........EASTERN SC.........

CITY           SKY/WX    TMP DP  RH WIND       PRES   REMARKS
CHARLESTON     MOSUNNY   93  78  61 SW12      29.90F HX 108
BEAUFORT MCAS  MOSUNNY   92  81  70 SE8       29.92S HX 112
HILTON HEAD    SUNNY     90  79  70 S6        29.94S HX 105

.........CENTRAL SC.........

CITY           SKY/WX    TMP DP  RH WIND       PRES   REMARKS
COLUMBIA       MOSUNNY   95  70  44 SW12      29.87F HX 101
ORANGEBURG     SUNNY     94  71  47 S8        29.89F HX 101
SUMTER SHAW    MOSUNNY   96  72  45 SW13G20   29.86S HX 104

.........WESTERN SC.........

CITY           SKY/WX    TMP DP  RH WIND       PRES   REMARKS
GREENVILLE     NOT AVBL
ROCK HILL      MOSUNNY   93  73  52 W10       29.88F HX 102
ANDERSON       MOSUNNY   92  70  48 W12       29.90F HX  97
CLEMSON        NOT AVBL
GREENWOOD      MOSUNNY   92  72  51 SW16G23   29.91F HX  99


...................COASTAL AND OFFSHORE REPORTS..................

................LOCAL PIERS AND NC RESERVE................


STATION/POSITION TIME  SKY/WX   TEMP    WIND        PRES    VSBY
                                AIR SEA DIR/SP/G
                 (UTC)          (F)     (DEG/KT/KT) (MB)    (MI)
JOHNY MRCER PIER 2048            85 84  190/ 20/ 22 1011.3S
NC RESRV MASNBRO NOT AVBL
OCEAN CREST PIER NOT AVBL
SPRINGMAID  PIER 2048                               1011.7F


................COASTAL AND OFFSHORE BUOYS................


STATION/POSITION TIME  SKY/WX   TEMP    WIND        PRES    VSBY
                                AIR SEA DIR/SP/G
                 (UTC)          (F)     (DEG/KT/KT) (MB)    (MI)
DIMNDSHOAL 41025 2050            86 86  210/ 14/ 16 1012.9F
WVE H/P(F/S)=  3/ 5 SWL H/P/D(F/S/D)=  2/110/ 8

CAPE LOOKOUT     2100            86     200/ 13/ 17 1012.4F
ONSLOW BAY 41036 NOT AVBL
ONSLOW BAY 41064 NOT AVBL
ONSLOW BAY 41159 2013               84                N/A
WVE H/P(F/S)=  3/ 5

MASNBO INL 41110 2059               85                N/A
WVE H/P(F/S)=  3/ 4

WILM HARBR 41108 2100               84                N/A
WVE H/P(F/S)=  3/ 5

27SE WRITB 41037 2008            85 84  200/ 14/ 19 1012.8F
FRYING PAN 41013 2100            84 85  210/ 14/ 16 1013.0
SUNST NRSH 41024 2008            86 87  210/ 12/ 16 1012.2F
CAPRS NRSH 41029 2008            84 87  210/ 14/ 17 1012.8F
EDISTO     41004 2100            84 86  210/ 14/ 16 1013.0


..........OFFSHORE BUOYS BEYOND 100 NM OFFSHORE...........
.....IN A TRIANGLE---HAT TO BERMUDA TO BAHAMAS TO HAT.....


STATION/POSITION TIME  SKY/WX   TEMP    WIND        PRES    VSBY
                                AIR SEA DIR/SP/G
                 (UTC)          (F)     (DEG/KT/KT) (MB)    (MI)
150E HAT   41001 2100               82  180/ 14/ 16 1015.5
W BERMUDA  41048 2050            78 83   10/  2/  4 1017.5R
WVE H/P(F/S)=  4/ 8 SWL H/P/D(F/S/D)=  3/120/ 8

ATLANTIC S 41049 2050            85 87   90/  6/  8 1019.5F
WVE H/P(F/S)=  5/ 8 SWL H/P/D(F/S/D)=  5/ 80/ 8

E BAHAMAS  41046 2100            84 84  100/ 12/ 16 1016.3
NE BAHAMAS 41047 2100            84 85  120/  8/ 12 1017.8
120E CANVRL41010 2100            86 87  160/ 10/ 10 1015.4

END



USA.gov is the U.S. government's official web portal to all federal, state and local government web resources and services.